Ana Sayfa
METAR-TAF:

METAR-TAF

Havaalanları :

Jaffrey, New Hampshire, Amerika Birleşik Devletleri

Enlem: 42-48-21N, Boylam: 072-00-02W, yükseklik: 317 m

Güncel hava durumu gözlemi

Rapor saat 15:52 UTC de 51 dakika önce yapıldı.
Rüzgar güneydan 6 kt
Sıcaklık -4°C
Nem 49%
Basınç 1029 hPa
Görüş mesafesi: 16.1 km
2800 ft yükseklikte çok bulutlu

METAR: KAFN 141552Z AUTO 17006KT 10SM OVC028 M04/M13 A3038 RMK AO2 SLP312 T10391133

Saat: 11:43 (16:43 UTC)


TAF: eksik

4.000'den fazla havaalanı için hava durumu gözlemleri ve tahminleri (METAR ve TAF raporları).

Kullanılabilir istasyonlar harita üzerinde sarı ve kırmızı noktalarla gösterilir.

İstasyonun adını görmek için fareyi noktanın üzerinde gezdirin.

Sonrasında hava gözlem ve tahminlerini görmek için tıklayın.

Haritayı değiştirmek için: yaklaştırmak için siyah artı işaretli yeşil düğmeye ve uzaklaştırmak için de eksi işaretli düğmeye hızla tıklayın; bitişik haritalar için yeşil okları kullanın.


METAR-TAF: